Location: Skalnate Pleso
(49.1889°N, 20.2450°E)
Time: 10:54:40
(UTC+02:00)

COSMOS 2428 - Pass Details

Date: 24 February 2020
Orbit: 846 x 856 km, 70.9° (Epoch: 08 April)

Event Time Altitude Azimuth Distance (km) Brightness Sun altitude
Exits shadow 02:22:47 18° 7° (N) 2,010 5.0 -39.6°
Drops below altitude 10° 02:24:20 10° 17° (NNE) 2,500 5.6 -39.4°
Sets 02:27:02 0° 26° (NNE) 3,440 6.6 -39.1°
